Time,TemperatureF,DewpointF,PressureIn,WindDirection,WindDirectionDegrees,WindSpeedMPH,WindSpeedGustMPH,Humidity,HourlyPrecipIn,Conditions,Clouds,dailyrainin,SoftwareType,DateUTC
2013-04-23 00:03:00,50.7,27.0,30.26,SE,139,5.0,8.0,40,0.00,,,0.00,weatherlink.com 1.10,2013-04-23 04:03:00,
2013-04-23 00:18:00,50.7,26.0,30.26,SE,133,2.0,8.0,39,0.00,,,0.00,weatherlink.com 1.10,2013-04-23 04:18:00,
2013-04-23 00:33:00,50.3,27.0,30.27,SSE,154,3.0,7.0,40,0.00,,,0.00,weatherlink.com 1.10,2013-04-23 04:33:00,
2013-04-23 00:48:00,50.1,26.0,30.27,SSE,160,2.0,6.0,40,0.00,,,0.00,weatherlink.com 1.10,2013-04-23 04:48:00,
2013-04-23 01:03:00,50.0,27.0,30.27,SSE,159,4.0,8.0,41,0.00,,,0.00,weatherlink.com 1.10,2013-04-23 05:03:00,
2013-04-23 01:18:00,49.9,27.0,30.27,SE,135,6.0,10.0,42,0.00,,,0.00,weatherlink.com 1.10,2013-04-23 05:18:00,
2013-04-23 01:33:00,49.8,28.0,30.26,SSE,157,2.0,9.0,44,0.00,,,0.00,weatherlink.com 1.10,2013-04-23 05:33:00,
2013-04-23 01:48:00,49.5,29.0,30.26,South,177,3.0,8.0,45,0.00,,,0.00,weatherlink.com 1.10,2013-04-23 05:48:00,
2013-04-23 02:03:00,49.1,29.0,30.26,SSE,152,6.0,10.0,47,0.00,,,0.00,weatherlink.com 1.10,2013-04-23 06:03:00,
2013-04-23 02:18:00,48.6,30.0,30.26,SSE,160,7.0,9.0,49,0.00,,,0.00,weatherlink.com 1.10,2013-04-23 06:18:00,
2013-04-23 02:33:00,48.2,31.0,30.26,South,186,4.0,10.0,51,0.00,,,0.00,weatherlink.com 1.10,2013-04-23 06:33:00,
2013-04-23 02:48:00,48.0,31.0,30.26,SE,145,4.0,9.0,52,0.00,,,0.00,weatherlink.com 1.10,2013-04-23 06:48:00,
2013-04-23 03:03:00,47.8,31.0,30.25,SSW,210,6.0,10.0,52,0.00,,,0.00,weatherlink.com 1.10,2013-04-23 07:03:00,
2013-04-23 03:18:00,47.9,32.0,30.25,SSE,162,5.0,15.0,54,0.00,,,0.00,weatherlink.com 1.10,2013-04-23 07:18:00,
2013-04-23 03:34:00,47.7,32.0,30.25,SE,131,8.0,12.0,55,0.00,,,0.00,weatherlink.com 1.10,2013-04-23 07:34:00,
2013-04-23 03:49:00,47.2,32.0,30.25,SE,142,4.0,9.0,55,0.00,,,0.00,weatherlink.com 1.10,2013-04-23 07:49:00,
2013-04-23 04:04:00,46.5,31.0,30.25,SE,141,3.0,6.0,56,0.00,,,0.00,weatherlink.com 1.10,2013-04-23 08:04:00,
2013-04-23 04:19:00,46.2,32.0,30.25,SE,143,5.0,9.0,57,0.00,,,0.00,weatherlink.com 1.10,2013-04-23 08:19:00,
2013-04-23 04:34:00,45.7,32.0,30.25,SSE,155,4.0,7.0,59,0.00,,,0.00,weatherlink.com 1.10,2013-04-23 08:34:00,
2013-04-23 04:49:00,45.2,32.0,30.25,SE,141,2.0,5.0,60,0.00,,,0.00,weatherlink.com 1.10,2013-04-23 08:49:00,
2013-04-23 05:04:00,44.8,32.0,30.24,SE,143,7.0,8.0,62,0.00,,,0.00,weatherlink.com 1.10,2013-04-23 09:04:00,
2013-04-23 05:19:00,44.4,32.0,30.24,South,177,3.0,6.0,63,0.00,,,0.00,weatherlink.com 1.10,2013-04-23 09:19:00,
2013-04-23 05:34:00,43.9,33.0,30.24,SSE,166,4.0,8.0,65,0.00,,,0.00,weatherlink.com 1.10,2013-04-23 09:34:00,
2013-04-23 05:49:00,43.5,33.0,30.24,SSE,153,2.0,5.0,66,0.00,,,0.00,weatherlink.com 1.10,2013-04-23 09:49:00,
2013-04-23 06:04:00,43.2,32.0,30.23,SE,146,3.0,6.0,66,0.00,,,0.00,weatherlink.com 1.10,2013-04-23 10:04:00,
2013-04-23 06:19:00,42.8,32.0,30.23,SE,133,2.0,5.0,66,0.00,,,0.00,weatherlink.com 1.10,2013-04-23 10:19:00,
2013-04-23 06:34:00,42.6,32.0,30.23,ESE,120,1.0,5.0,67,0.00,,,0.00,weatherlink.com 1.10,2013-04-23 10:34:00,
2013-04-23 06:49:00,42.9,32.0,30.23,SE,129,2.0,4.0,66,0.00,,,0.00,weatherlink.com 1.10,2013-04-23 10:49:00,
2013-04-23 07:04:00,43.2,32.0,30.23,ESE,120,2.0,3.0,64,0.00,,,0.00,weatherlink.com 1.10,2013-04-23 11:04:00,
2013-04-23 07:19:00,43.9,32.0,30.23,ESE,105,2.0,4.0,63,0.00,,,0.00,weatherlink.com 1.10,2013-04-23 11:19:00,
2013-04-23 07:34:00,44.9,32.0,30.23,SSE,153,1.0,6.0,61,0.00,,,0.00,weatherlink.com 1.10,2013-04-23 11:34:00,
2013-04-23 07:49:00,45.7,31.0,30.23,SSE,167,4.0,11.0,58,0.00,,,0.00,weatherlink.com 1.10,2013-04-23 11:49:00,
2013-04-23 08:04:00,46.1,31.0,30.23,SE,146,12.0,14.0,56,0.00,,,0.00,weatherlink.com 1.10,2013-04-23 12:04:00,
2013-04-23 08:19:00,46.0,30.0,30.22,SSE,150,11.0,18.0,55,0.00,,,0.00,weatherlink.com 1.10,2013-04-23 12:19:00,
2013-04-23 08:34:00,46.5,31.0,30.21,SSE,159,7.0,15.0,55,0.00,,,0.00,weatherlink.com 1.10,2013-04-23 12:34:00,
2013-04-23 08:49:00,47.4,32.0,30.21,South,191,4.0,14.0,55,0.00,,,0.00,weatherlink.com 1.10,2013-04-23 12:49:00,
2013-04-23 09:04:00,47.5,32.0,30.21,SE,136,5.0,14.0,56,0.00,,,0.00,weatherlink.com 1.10,2013-04-23 13:04:00,
2013-04-23 09:19:00,48.4,33.0,30.20,SSW,200,6.0,12.0,55,0.00,,,0.00,weatherlink.com 1.10,2013-04-23 13:19:00,
2013-04-23 09:34:00,49.2,32.0,30.19,South,186,6.0,11.0,52,0.00,,,0.00,weatherlink.com 1.10,2013-04-23 13:34:00,
2013-04-23 09:49:00,50.2,33.0,30.19,South,187,3.0,8.0,51,0.00,,,0.00,weatherlink.com 1.10,2013-04-23 13:49:00,
2013-04-23 10:04:00,51.0,32.0,30.19,SE,131,3.0,8.0,49,0.00,,,0.00,weatherlink.com 1.10,2013-04-23 14:04:00,
2013-04-23 10:20:00,52.2,33.0,30.18,West,273,1.0,6.0,49,0.00,,,0.00,weatherlink.com 1.10,2013-04-23 14:20:00,
2013-04-23 10:35:00,52.8,33.0,30.18,SE,142,6.0,9.0,48,0.00,,,0.00,weatherlink.com 1.10,2013-04-23 14:35:00,
2013-04-23 10:50:00,52.8,33.0,30.18,NW,304,1.0,5.0,47,0.00,,,0.00,weatherlink.com 1.10,2013-04-23 14:50:00,
2013-04-23 11:05:00,53.7,34.0,30.18,SW,235,2.0,4.0,47,0.00,,,0.00,weatherlink.com 1.10,2013-04-23 15:05:00,
2013-04-23 11:20:00,54.7,35.0,30.17,ESE,103,0.0,4.0,47,0.00,,,0.00,weatherlink.com 1.10,2013-04-23 15:20:00,
2013-04-23 11:35:00,54.8,34.0,30.16,West,279,1.0,6.0,46,0.00,,,0.00,weatherlink.com 1.10,2013-04-23 15:35:00,
2013-04-23 11:50:00,56.1,33.0,30.15,ESE,120,3.0,7.0,42,0.00,,,0.00,weatherlink.com 1.10,2013-04-23 15:50:00,
2013-04-23 12:05:00,56.2,31.0,30.16,ESE,112,1.0,8.0,38,0.00,,,0.00,weatherlink.com 1.10,2013-04-23 16:05:00,
2013-04-23 12:20:00,55.8,32.0,30.17,ENE,68,6.0,6.0,41,0.00,,,0.00,weatherlink.com 1.10,2013-04-23 16:20:00,
2013-04-23 12:35:00,56.9,33.0,30.17,SW,220,5.0,10.0,40,0.00,,,0.00,weatherlink.com 1.10,2013-04-23 16:35:00,
2013-04-23 12:50:00,57.5,34.0,30.17,NW,319,6.0,9.0,41,0.00,,,0.00,weatherlink.com 1.10,2013-04-23 16:50:00,
2013-04-23 13:05:00,57.0,33.0,30.15,ENE,61,5.0,8.0,41,0.00,,,0.00,weatherlink.com 1.10,2013-04-23 17:05:00,
2013-04-23 13:20:00,58.0,34.0,30.13,North,10,2.0,7.0,40,0.00,,,0.00,weatherlink.com 1.10,2013-04-23 17:20:00,
2013-04-23 13:35:00,58.2,32.0,30.11,ENE,57,4.0,8.0,38,0.00,,,0.00,weatherlink.com 1.10,2013-04-23 17:35:00,
2013-04-23 13:50:00,57.9,32.0,30.08,East,92,6.0,10.0,38,0.00,,,0.00,weatherlink.com 1.10,2013-04-23 17:50:00,
2013-04-23 14:05:00,59.1,33.0,30.09,SW,219,1.0,6.0,37,0.00,,,0.00,weatherlink.com 1.10,2013-04-23 18:05:00,
2013-04-23 14:21:00,61.0,32.0,30.08,South,179,4.0,8.0,33,0.00,,,0.00,weatherlink.com 1.10,2013-04-23 18:21:00,
2013-04-23 14:35:00,61.4,32.0,30.07,SE,124,6.0,12.0,33,0.00,,,0.00,weatherlink.com 1.10,2013-04-23 18:35:00,
2013-04-23 14:50:00,62.2,31.0,30.06,SSE,153,8.0,12.0,31,0.00,,,0.00,weatherlink.com 1.10,2013-04-23 18:50:00,
2013-04-23 15:05:00,62.7,31.0,30.06,SW,218,10.0,10.0,30,0.00,,,0.00,weatherlink.com 1.10,2013-04-23 19:05:00,
2013-04-23 15:20:00,62.4,31.0,30.05,South,179,8.0,11.0,31,0.00,,,0.00,weatherlink.com 1.10,2013-04-23 19:20:00,
2013-04-23 15:35:00,63.1,32.0,30.03,WSW,255,3.0,9.0,31,0.00,,,0.00,weatherlink.com 1.10,2013-04-23 19:35:00,
2013-04-23 15:50:00,64.5,34.0,30.03,SSW,197,4.0,8.0,32,0.00,,,0.00,weatherlink.com 1.10,2013-04-23 19:50:00,
2013-04-23 16:06:00,64.7,33.0,30.02,SE,128,4.0,9.0,31,0.00,,,0.00,weatherlink.com 1.10,2013-04-23 20:06:00,
2013-04-23 16:22:00,65.3,35.0,30.02,ESE,110,4.0,8.0,32,0.00,,,0.00,weatherlink.com 1.10,2013-04-23 20:22:00,
2013-04-23 16:36:00,66.4,36.0,30.01,SSW,197,1.0,5.0,32,0.00,,,0.00,weatherlink.com 1.10,2013-04-23 20:36:00,
2013-04-23 16:52:00,66.7,36.0,30.00,SSE,164,6.0,6.0,32,0.00,,,0.00,weatherlink.com 1.10,2013-04-23 20:52:00,
2013-04-23 17:07:00,66.1,34.0,30.00,East,101,4.0,8.0,31,0.00,,,0.00,weatherlink.com 1.10,2013-04-23 21:07:00,
2013-04-23 17:22:00,66.5,36.0,29.99,SSW,198,4.0,9.0,32,0.00,,,0.00,weatherlink.com 1.10,2013-04-23 21:22:00,
2013-04-23 17:37:00,66.9,38.0,29.98,South,187,3.0,5.0,34,0.00,,,0.00,weatherlink.com 1.10,2013-04-23 21:37:00,
2013-04-23 17:51:00,67.1,37.0,29.98,SSE,155,4.0,7.0,33,0.00,,,0.00,weatherlink.com 1.10,2013-04-23 21:51:00,
2013-04-23 18:07:00,67.5,38.0,29.97,South,173,6.0,9.0,34,0.00,,,0.00,weatherlink.com 1.10,2013-04-23 22:07:00,
2013-04-23 18:21:00,67.2,37.0,29.96,East,89,1.0,8.0,33,0.00,,,0.00,weatherlink.com 1.10,2013-04-23 22:21:00,
2013-04-23 18:36:00,66.9,38.0,29.95,SE,133,2.0,5.0,34,0.00,,,0.00,weatherlink.com 1.10,2013-04-23 22:36:00,
2013-04-23 18:51:00,66.1,37.0,29.95,SE,139,1.0,5.0,34,0.00,,,0.00,weatherlink.com 1.10,2013-04-23 22:51:00,
2013-04-23 19:07:00,65.7,37.0,29.95,ESE,115,0.0,2.0,35,0.00,,,0.00,weatherlink.com 1.10,2013-04-23 23:07:00,
2013-04-23 19:21:00,65.4,38.0,29.94,East,92,0.0,0.0,36,0.00,,,0.00,weatherlink.com 1.10,2013-04-23 23:21:00,
2013-04-23 19:37:00,64.9,37.0,29.93,ENE,71,1.0,2.0,36,0.00,,,0.00,weatherlink.com 1.10,2013-04-23 23:37:00,
2013-04-23 19:52:00,64.2,37.0,29.93,East,96,2.0,4.0,36,0.00,,,0.00,weatherlink.com 1.10,2013-04-23 23:52:00,
2013-04-23 20:06:00,63.5,37.0,29.93,East,79,4.0,4.0,37,0.00,,,0.00,weatherlink.com 1.10,2013-04-24 00:06:00,
2013-04-23 20:21:00,63.1,37.0,29.92,East,82,4.0,6.0,38,0.00,,,0.00,weatherlink.com 1.10,2013-04-24 00:21:00,
2013-04-23 20:36:00,62.6,37.0,29.92,East,94,3.0,5.0,39,0.00,,,0.00,weatherlink.com 1.10,2013-04-24 00:36:00,
2013-04-23 20:51:00,62.3,37.0,29.92,East,79,2.0,5.0,39,0.00,,,0.00,weatherlink.com 1.10,2013-04-24 00:51:00,
2013-04-23 21:06:00,61.6,37.0,29.91,East,80,1.0,4.0,40,0.00,,,0.00,weatherlink.com 1.10,2013-04-24 01:06:00,
2013-04-23 21:21:00,61.3,37.0,29.91,ESE,107,2.0,4.0,40,0.00,,,0.00,weatherlink.com 1.10,2013-04-24 01:21:00,
2013-04-23 21:36:00,60.2,36.0,29.90,East,84,3.0,4.0,41,0.00,,,0.00,weatherlink.com 1.10,2013-04-24 01:36:00,
2013-04-23 21:51:00,59.7,36.0,29.90,East,91,2.0,5.0,42,0.00,,,0.00,weatherlink.com 1.10,2013-04-24 01:51:00,
2013-04-23 22:06:00,58.9,37.0,29.89,ESE,111,3.0,5.0,44,0.00,,,0.00,weatherlink.com 1.10,2013-04-24 02:06:00,
2013-04-23 22:22:00,58.2,37.0,29.89,East,98,3.0,4.0,46,0.00,,,0.00,weatherlink.com 1.10,2013-04-24 02:22:00,
2013-04-23 22:52:00,57.4,37.0,29.88,ESE,111,3.0,4.0,47,0.00,,,0.00,weatherlink.com 1.10,2013-04-24 02:52:00,
2013-04-23 23:22:00,58.4,37.0,29.87,SSE,153,6.0,6.0,45,0.00,,,0.00,weatherlink.com 1.10,2013-04-24 03:22:00,
2013-04-23 23:37:00,58.8,37.0,29.86,SSE,158,7.0,9.0,45,0.00,,,0.00,weatherlink.com 1.10,2013-04-24 03:37:00,